Date String (YYYY-MM-DD hh:mm:ss) UTC,Instrument flags,Ambient pressure (hPa),Sample flow (lpm),Bypass flow (lpm),Sample temperature (°C),Ambient temperature (°C),ASC tube jacket temperature (°C),LED temperature (°C),Box temperature (°C),Sample RH (%),Span deviation,Mass concentration (μg/m³),Mass concentration (μg/m³),Mass concentration (μg/m³)
DateTimeUTC,F1_M11,P_M11,Q1_M11,Q2_M11,T1_M11,T2_M11,T3_M11,T4_M11,T5_M11,U1_M11,ZSPAN_M11,X0_M11,X2_M11,X1_M11
2022-09-13 11:00:00,,0826.7,5.00,0.00,29.6,27.9,00.0,38.4,31.3,10.2,0001.6,0012.17,0008.97,0008.57
2022-09-13 11:01:00,,0826.7,4.99,0.00,29.5,27.9,00.0,38.4,31.3,10.2,0002.2,0012.16,0008.98,0008.57
2022-09-13 11:02:00,,0826.7,5.01,0.00,29.5,27.9,00.0,38.4,31.3,10.1,0002.3,0012.69,0009.00,0008.58
2022-09-13 11:03:00,,0826.7,5.00,0.00,29.5,27.9,00.0,38.4,31.3,10.2,0003.0,0012.81,0009.01,0008.57
2022-09-13 11:04:00,,0826.7,4.99,0.00,29.5,27.9,00.0,38.4,31.2,10.2,0003.0,0012.79,0009.02,0008.58
2022-09-13 11:05:00,,0826.7,5.00,0.00,29.5,27.8,00.0,38.4,31.2,10.2,0003.4,0012.76,0009.02,0008.59
2022-09-13 11:06:00,,0826.6,5.01,0.00,29.5,27.8,00.0,38.4,31.2,10.1,0003.9,0012.79,0009.04,0008.59
2022-09-13 11:07:00,,0826.7,5.01,0.00,29.5,27.9,00.0,38.4,31.2,10.2,0003.6,0012.80,0009.04,0008.58
2022-09-13 11:08:00,,0826.7,4.99,0.00,29.5,27.9,00.0,38.4,31.2,10.1,0002.9,0012.98,0009.08,0008.57
2022-09-13 11:09:00,,0826.7,4.99,0.00,29.5,27.9,00.0,38.3,31.2,10.1,0002.2,0013.05,0009.10,0008.57
2022-09-13 11:10:00,,0826.7,5.01,0.00,29.5,27.9,00.0,38.3,31.2,10.1,0002.3,0013.09,0009.11,0008.56
2022-09-13 11:11:00,,0826.7,5.00,0.00,29.4,27.8,00.0,38.3,31.1,10.1,0002.1,0013.16,0009.11,0008.56
2022-09-13 11:12:00,,0826.7,5.01,0.00,29.4,27.8,00.0,38.3,31.1,10.2,0002.2,0013.24,0009.10,0008.55
2022-09-13 11:13:00,,0826.7,5.00,0.00,29.4,27.8,00.0,38.3,31.1,10.2,0002.4,0012.64,0009.06,0008.52
2022-09-13 11:14:00,,0826.7,5.01,0.00,29.4,27.8,00.0,38.3,31.1,10.2,0002.1,0012.41,0009.03,0008.51
2022-09-13 11:15:00,,0826.7,5.00,0.00,29.4,27.9,00.0,38.3,31.1,10.2,0002.1,0012.40,0009.02,0008.49
2022-09-13 11:16:00,,0826.7,5.00,0.00,29.4,27.8,00.0,38.3,31.1,10.1,0001.5,0012.48,0009.02,0008.48
2022-09-13 11:17:00,,0826.7,5.00,0.00,29.4,27.7,00.0,38.3,31.1,10.1,0001.3,0012.53,0009.00,0008.47
2022-09-13 11:18:00,,0826.7,5.00,0.00,29.4,27.7,00.0,38.3,31.1,10.1,0001.8,0012.53,0008.99,0008.47
2022-09-13 11:19:00,,0826.7,5.00,0.00,29.4,27.7,00.0,38.3,31.0,10.2,0002.0,0012.40,0008.94,0008.45
2022-09-13 11:20:00,,0826.6,5.00,0.00,29.4,27.6,00.0,38.3,31.0,10.1,0002.1,0012.44,0008.91,0008.44
2022-09-13 11:21:00,,0826.7,5.00,0.00,29.3,27.6,00.0,38.2,31.0,10.0,0001.9,0012.45,0008.87,0008.42
2022-09-13 11:22:00,,0826.7,5.01,0.00,29.3,27.7,00.0,38.2,31.1,10.1,0002.1,0012.68,0008.83,0008.39
2022-09-13 11:23:00,,0826.7,5.00,0.00,29.3,27.7,00.0,38.2,31.0,10.2,0001.7,0013.10,0008.80,0008.36
2022-09-13 11:24:00,,0826.7,5.00,0.00,29.3,27.7,00.0,38.2,31.0,10.2,0001.8,0013.31,0008.81,0008.35
2022-09-13 11:25:00,,0826.7,4.99,0.00,29.3,27.7,00.0,38.2,31.0,10.3,0001.7,0013.30,0008.81,0008.34
2022-09-13 11:26:00,,0826.7,5.01,0.00,29.3,27.7,00.0,38.2,31.0,10.3,0001.5,0013.39,0008.79,0008.34
2022-09-13 11:27:00,,0826.7,5.01,0.00,29.3,27.7,00.0,38.2,31.0,10.4,0001.8,0013.34,0008.78,0008.34
2022-09-13 11:28:00,,0826.7,4.99,0.00,29.3,27.7,00.0,38.2,31.0,10.3,0002.2,0013.35,0008.78,0008.32
2022-09-13 11:29:00,,0826.7,4.99,0.00,29.3,27.6,00.0,38.2,31.0,10.3,0002.0,0013.44,0008.76,0008.30
2022-09-13 11:30:00,,0826.7,5.00,0.00,29.3,27.6,00.0,38.2,31.0,10.3,0002.0,0013.95,0008.79,0008.31
2022-09-13 11:31:00,,0826.7,5.01,0.00,29.3,27.6,00.0,38.2,31.0,10.4,0002.1,0014.10,0008.81,0008.32
2022-09-13 11:32:00,,0826.7,5.00,0.00,29.3,27.6,00.0,38.1,31.0,10.2,0001.4,0013.99,0008.81,0008.31
2022-09-13 11:33:00,,0826.7,5.01,0.00,29.2,27.6,00.0,38.1,30.9,10.3,0000.6,0014.01,0008.81,0008.30
2022-09-13 11:34:00,,0826.7,4.99,0.00,29.2,27.6,00.0,38.1,30.9,10.2,0000.3,0014.03,0008.83,0008.32
2022-09-13 11:35:00,,0826.7,5.00,0.00,29.2,27.6,00.0,38.1,30.9,10.2,-000.1,0014.35,0008.83,0008.33
2022-09-13 11:36:00,,0826.7,5.00,0.00,29.2,27.7,00.0,38.1,31.0,10.2,-000.5,0014.36,0008.83,0008.33
2022-09-13 11:37:00,,0826.7,5.00,0.00,29.2,27.6,00.0,38.1,30.9,10.3,-000.7,0014.45,0008.79,0008.32
2022-09-13 11:38:00,,0826.7,5.00,0.00,29.2,27.7,00.0,38.1,31.0,10.3,-000.6,0014.65,0008.76,0008.30
2022-09-13 11:39:00,,0826.7,5.01,0.00,29.2,27.7,00.0,38.1,30.9,10.3,-000.9,0015.02,0008.76,0008.28
2022-09-13 11:40:00,,0826.7,5.01,0.00,29.2,27.6,00.0,38.1,30.9,10.2,-000.3,0014.97,0008.77,0008.27
2022-09-13 11:41:00,,0826.6,5.01,0.00,29.2,27.6,00.0,38.1,30.9,10.2,0000.1,0014.81,0008.75,0008.26
2022-09-13 11:42:00,,0826.7,4.99,0.00,29.2,27.6,00.0,38.1,30.9,10.2,-000.4,0014.82,0008.71,0008.22
2022-09-13 11:43:00,,0826.6,5.00,0.00,29.2,27.6,00.0,38.1,30.9,10.3,-000.4,0014.94,0008.72,0008.22
2022-09-13 11:44:00,,0826.7,5.00,0.00,29.2,27.6,00.0,38.0,30.9,10.3,0000.5,0015.10,0008.75,0008.23
2022-09-13 11:45:00,,0826.7,5.00,0.00,29.1,27.5,00.0,38.0,30.8,10.3,0000.5,0015.06,0008.76,0008.23
2022-09-13 11:46:00,,0826.7,5.00,0.00,29.2,27.6,00.0,38.0,30.9,10.3,0000.5,0014.77,0008.76,0008.23
2022-09-13 11:47:00,,0826.6,5.01,0.00,29.1,27.5,00.0,38.0,30.8,10.3,0000.9,0014.79,0008.75,0008.22
2022-09-13 11:48:00,,0826.6,5.00,0.00,29.1,27.5,00.0,38.0,30.8,10.4,0001.3,0014.96,0008.78,0008.23
2022-09-13 11:49:00,,0826.6,5.00,0.00,29.1,27.5,00.0,38.0,30.8,10.3,0001.0,0014.75,0008.80,0008.23
2022-09-13 11:50:00,,0826.6,5.00,0.00,29.1,27.6,00.0,38.0,30.8,10.3,0000.9,0014.23,0008.78,0008.25
2022-09-13 11:51:00,,0826.6,4.99,0.00,29.1,27.6,00.0,38.0,30.9,10.3,0000.1,0014.10,0008.76,0008.25
2022-09-13 11:52:00,,0826.6,5.00,0.00,29.1,27.5,00.0,38.0,30.8,10.3,-000.6,0014.26,0008.77,0008.26
2022-09-13 11:53:00,,0826.6,5.01,0.00,29.1,27.5,00.0,38.0,30.8,10.3,-000.1,0014.26,0008.79,0008.27
2022-09-13 11:54:00,,0826.6,5.00,0.00,29.1,27.6,00.0,38.0,30.8,10.2,0000.7,0014.10,0008.77,0008.28
2022-09-13 11:55:00,,0826.6,5.00,0.00,29.1,27.6,00.0,38.0,30.9,10.4,0000.7,0013.71,0008.74,0008.27
2022-09-13 11:56:00,,0826.6,5.00,0.00,29.1,27.6,00.0,38.0,30.9,10.5,0001.4,0013.13,0008.71,0008.25
2022-09-13 11:57:00,,0826.6,5.00,0.00,29.1,27.6,00.0,38.0,30.9,10.4,0002.1,0012.82,0008.71,0008.25
2022-09-13 11:58:00,,0826.6,5.00,0.00,29.1,27.6,00.0,38.0,30.8,10.3,0002.4,0012.87,0008.71,0008.25
2022-09-13 11:59:00,,0826.6,4.99,0.00,29.1,27.5,00.0,38.0,30.8,10.5,0002.4,0012.52,0008.67,0008.24
